User: anonymous   Login
Location: Unspecified
(0.0000°N, 0.0000°E)
Time: 09:12:17
(UTC+00:00)
Language:

SYRACUSE 3B - Orbit

View from above orbital plane
View from above orbital plane
View from above satellite
View from above satellite

Ground track
Ground track

The orbit data is extracted from the following two-line orbital elements,

1 29273U 06033B   18018.33799318 -.00000041 +00000-0 +00000-0 0  9992
2 29273 000.0237 067.4153 0004950 236.9078 289.8446 01.00271296041943
Epoch (UTC): 18 January 2018 08:06:42
Eccentricity: 0.0004950
inclination: 0.0237°
perigee height: 35765 km
apogee height: 35807 km
right ascension of ascending node: 67.4153°
argument of perigee: 236.9078°
revolutions per day: 1.00271296
mean anomaly at epoch: 289.8446°
orbit number at epoch: 4194

The dashed part of the orbit path shows where the satellite is in the earth's shadow,  

DLR